Hourly Data Report for September 15, 2021

OTTAWA INTL A
ONTARIO
Current Station Operator: NAVCAN

45°19'00.000" N
75°40'00.000" W
114.90 m
6106001
71628
YOW

Download Data

Hourly Data (September 2021)
Hourly Data Report for September 15, 2021
TIME
LST
Temp Definition
°C
Dew Point Definition
°C
Rel Hum Definition
%
Precip. Amount Definition
mm

Wind Dir Definition
10's deg

Wind Spd Definition
km/h
Visibility Definition
km
Stn Press Definition
kPa
Hmdx Definition


Wind Chill Definition


Weather Definition


00:00 20.1 18.9 93   21 26 9.7 99.17 27   Thunderstorms,Heavy Rain Showers
01:00 19.7 18.5 93   24 23 9.7 99.19     Thunderstorms,Heavy Rain Showers
02:00 18.8 18.0 95   21 18 12.9 99.31     Moderate Rain Showers
03:00 18.9 17.9 94   23 20 16.1 99.22     Rain Showers
04:00 18.9 17.9 94   23 17 16.1 99.26     Rain
05:00 18.9 18.0 94   24 14 24.1 99.34     LegendNANA
06:00 18.5 17.6 94   26 14 24.1 99.42     LegendNANA
07:00 17.8 15.4 86   27 18 24.1 99.49     Mostly Cloudy
08:00 18.0 15.6 86   28 14 24.1 99.60     LegendNANA
09:00 17.8 14.5 81   28 19 24.1 99.72     LegendNANA
10:00 16.6 12.1 75   29 25 24.1 99.84     Mostly Cloudy
11:00 17.3 11.2 67   28 24 24.1 99.85     LegendNANA
12:00 18.3 10.9 62   28 12 24.1 99.88     LegendNANA
13:00 18.6 11.1 61   28 25 24.1 99.91     Mostly Cloudy
14:00 17.7 11.0 64   29 21 24.1 99.92     LegendNANA
15:00 18.4 11.3 63   30 15 24.1 100.00     LegendNANA
16:00 18.2 11.1 63   29 15 24.1 100.02     Mostly Cloudy
17:00 17.8 11.1 65   28 12 24.1 100.12     LegendNANA
18:00 16.6 11.1 70   25 5 24.1 100.20     LegendNANA
19:00 13.3 11.4 88   15 4 24.1 100.29     Mostly Cloudy
20:00 12.4 11.0 91   15 5 24.1 100.37     LegendNANA
21:00 13.2 11.1 87   18 5 24.1 100.44     LegendNANA
22:00 12.5 11.1 91   19 3 24.1 100.54     Mostly Cloudy
23:00 11.9 11.0 94   19 4 24.1 100.59     LegendNANA

Notes on Data Quality.

Legend

  • E = Estimated
  • M = Missing
  • NA = Not Available*
  • [empty] = Indicates an unobserved value
Date modified: